Flag for Brazil Weather past 2 weeks in Boa Vista, Roraima, Brazil

Now
77 °F

Sunny.


Feels Like: 79 °F
Forecast: 74 / 90 °F
Wind: 10 mph from Northeast

Location: Boa Vista Aeropor-To

Current Time: Dec 26, 2014 at 7:41:44 AM

Latest Report: Dec 26, 2014 at 7:00 AM


Visibility: 10 mi

Pressure: 29.92 "Hg

Humidity: 74%

Dew point: 68 °F

Location of Boa VistaLocation

Historic Weather in Boa Vista — Graph

°F

Boa Vista temperature yesterday

Maximum temperature yesterday: 90 °F (at 1:00 PM)
Minimum temperature yesterday: 73 °F (at 4:00 AM)
Average temperature yesterday: 82 °F

Past Weeks' High & Low Weather Summary

 TemperatureHumidityPressure
High91 °F (Dec 16, 2:00 PM)100% (Dec 13, 9:00 AM)29.98 "Hg (Dec 13, 9:00 AM)
Low48 °F (Dec 23, 3:00 PM)14% (Dec 16, 2:00 PM)29.74 "Hg (Dec 13, 6:00 PM)
Average80 °F68%29.85 "Hg
* Reported Dec 11 6:00 AM — Dec 26 6:00 AM, Boa Vista, Weather by CustomWeather, © 2014

Note: Actual official high and low records may vary slightly from our data, if they occured in-between our weather recording intervals... More about our weather records

Advertising

Boa Vista weather history for previous 24 hours

 ConditionsComfort  
Time TempWeatherWind HumidityBarometerVisibility
6:00 AM
Dec 26
75 °FClear.7 mph78%29.89 "Hg10 mi
5:00 AM75 °FClear.9 mph83%29.86 "Hg10 mi
4:00 AM77 °FClear.12 mph74%29.86 "Hg10 mi
3:00 AM77 °FClear.7 mph74%29.83 "Hg10 mi
2:00 AM77 °FClear.10 mph74%29.86 "Hg10 mi
1:00 AM77 °FClear.7 mph74%29.86 "Hg10 mi
12:00 AM79 °FClear.12 mph70%29.86 "Hg10 mi
11:00 PM
Dec 25
81 °FClear.8 mph66%29.89 "Hg10 mi
10:00 PM81 °FClear.10 mph62%29.89 "Hg10 mi
9:00 PM81 °FClear.12 mph66%29.86 "Hg10 mi
8:00 PM84 °FClear.10 mph55%29.83 "Hg10 mi
7:00 PM86 °FClear.8 mph52%29.80 "Hg10 mi
6:00 PM88 °FPassing clouds.8 mph46%29.77 "HgN/A
5:00 PM90 °FPassing clouds.10 mph43%29.74 "HgN/A
4:00 PM90 °FPassing clouds.6 mph43%29.77 "HgN/A
3:00 PM90 °FScattered clouds.10 mph43%29.80 "HgN/A
2:00 PM90 °FScattered clouds.9 mph43%29.83 "HgN/A
1:00 PM90 °FScattered clouds.12 mph46%29.86 "HgN/A
12:00 PM86 °FScattered clouds.10 mph52%29.89 "HgN/A
11:00 AM86 °FScattered clouds.14 mph52%29.92 "HgN/A
10:00 AM84 °FScattered clouds.18 mph58%29.95 "HgN/A
9:00 AM81 °FSunny.18 mph66%29.95 "Hg10 mi
8:00 AM77 °FSunny.12 mph79%29.92 "Hg10 mi
7:00 AM75 °FSunny.8 mph83%29.89 "Hg10 mi
Weather by CustomWeather, © 2014

See weather overviewHow to use our weather pages